Location: Zagreb
(45.8000°N, 16.0000°E)
Time: 09:25:54
(UTC+02:00)

X-37B - Pass Details

Date: 02 July 2022
Orbit: 328 x 343 km, 45.0° (Epoch: 12 August)

Event Time Altitude Azimuth Distance (km) Brightness Sun altitude
Rises 21:40:48 0° 257° (WSW) 2,085 4.8 -7.7°
Reaches altitude 10° 21:42:48 10° 255° (WSW) 1,253 3.6 -7.9°
Maximum altitude 21:45:35 68° 172° (S) 360 0.2 -8.3°
Drops below altitude 10° 21:48:23 10° 88° (E) 1,261 2.8 -8.6°
Enters shadow 21:49:21 - 87° (E) 1,658 3.4 -8.7°
